When you browse on this site, cookies collect data to enhance your experience and personalize the content and advertising you see.
Visit our Privacy Policy to learn more. By continuing to use the site, you agree to this use of cookies and data.
  • Em Portugal
  • Lista de países
  • Para 7 dias
  • Temperatura da água
  • Mapas de satélite
  • Mapa do tempo
  • Widgets de tempo
  • user-avatar
    Iniciar Sessão

    Previsão horária em Waplewko

    Hoje, 20 Julho, Sábado

    Tempo Temperatura Precipitação Vento Pressão Humidade
    00:00 +16°C° 0.2 mm 1 m/s 755 mmHg 91%
    01:00 +16°C° 0 mm 1 m/s 755 mmHg 92%
    02:00 +16°C° 0 mm 1 m/s 755 mmHg 92%
    03:00 +16°C° 0 mm 1 m/s 756 mmHg 92%
    04:00 +15°C° 0 mm 1 m/s 756 mmHg 92%
    05:00 +18°C° 0 mm 1 m/s 756 mmHg 88%
    06:00 +17°C° 0 mm 0 m/s 756 mmHg 85%
    07:00 +19°C° 0 mm 0 m/s 756 mmHg 81%
    08:00 +21°C° 0 mm 0 m/s 756 mmHg 74%
    09:00 +24°C° 0 mm 1 m/s 757 mmHg 67%
    10:00 +26°C° 0 mm 1 m/s 757 mmHg 60%
    11:00 +27°C° 0 mm 1 m/s 757 mmHg 57%
    12:00 +27°C° 0 mm 1 m/s 757 mmHg 53%
    13:00 +28°C° 0 mm 1 m/s 756 mmHg 50%
    14:00 +28°C° 0 mm 2 m/s 757 mmHg 51%
    15:00 +28°C° 0 mm 2 m/s 757 mmHg 53%
    16:00 +27°C° 0 mm 2 m/s 757 mmHg 55%
    17:00 +26°C° 0 mm 2 m/s 756 mmHg 62%
    18:00 +25°C° 0 mm 2 m/s 756 mmHg 69%
    19:00 +23°C° 0 mm 2 m/s 756 mmHg 76%
    20:00 +21°C° 0 mm 2 m/s 756 mmHg 77%
    21:00 +20°C° 0 mm 2 m/s 756 mmHg 79%
    22:00 +19°C° 0 mm 2 m/s 757 mmHg 81%
    23:00 +19°C° 0 mm 2 m/s 757 mmHg 81%

    Amanhã, 21 Julho, Domingo

    Tempo Temperatura Precipitação Vento Pressão Humidade
    00:00 +19°C° 0 mm 3 m/s 756 mmHg 81%
    01:00 +19°C° 0 mm 3 m/s 756 mmHg 80%
    02:00 +18°C° 0 mm 3 m/s 756 mmHg 81%
    03:00 +18°C° 0 mm 3 m/s 756 mmHg 81%
    04:00 +18°C° 0 mm 3 m/s 756 mmHg 81%
    05:00 +19°C° 0 mm 3 m/s 756 mmHg 78%
    06:00 +21°C° 0 mm 4 m/s 755 mmHg 74%
    07:00 +22°C° 0 mm 4 m/s 755 mmHg 71%
    08:00 +23°C° 0 mm 5 m/s 756 mmHg 70%
    09:00 +25°C° 0 mm 5 m/s 756 mmHg 69%
    10:00 +26°C° 0 mm 5 m/s 756 mmHg 67%
    11:00 +26°C° 1.1 mm 5 m/s 756 mmHg 68%
    12:00 +27°C° 1.1 mm 4 m/s 756 mmHg 68%
    13:00 +27°C° 1.1 mm 4 m/s 755 mmHg 68%
    14:00 +27°C° 1 mm 4 m/s 756 mmHg 70%
    15:00 +26°C° 1 mm 4 m/s 756 mmHg 71%
    16:00 +26°C° 1 mm 4 m/s 756 mmHg 72%
    17:00 +25°C° 0.5 mm 4 m/s 756 mmHg 75%
    18:00 +22°C° 0.5 mm 3 m/s 756 mmHg 79%
    19:00 +21°C° 0.5 mm 3 m/s 756 mmHg 83%
    20:00 +20°C° 0 mm 2 m/s 757 mmHg 84%
    21:00 +19°C° 0 mm 2 m/s 757 mmHg 86%
    22:00 +18°C° 0 mm 2 m/s 758 mmHg 88%
    23:00 +17°C° 0 mm 3 m/s 758 mmHg 89%

    Depois de amanhã, 22 Julho, Segunda-feira

    Tempo Temperatura Precipitação Vento Pressão Humidade
    00:00 +17°C° 0 mm 3 m/s 758 mmHg 91%
    01:00 +16°C° 0 mm 3 m/s 758 mmHg 92%
    02:00 +17°C° 0 mm 3 m/s 758 mmHg 91%
    03:00 +17°C° 0 mm 3 m/s 758 mmHg 91%
    04:00 +17°C° 0 mm 4 m/s 758 mmHg 90%
    05:00 +18°C° 0.1 mm 4 m/s 759 mmHg 87%
    06:00 +19°C° 0.1 mm 5 m/s 759 mmHg 84%
    07:00 +19°C° 0.1 mm 6 m/s 759 mmHg 81%
    08:00 +20°C° 0 mm 5 m/s 759 mmHg 75%
    09:00 +21°C° 0 mm 5 m/s 760 mmHg 70%
    10:00 +21°C° 0 mm 5 m/s 760 mmHg 64%
    11:00 +22°C° 0 mm 5 m/s 760 mmHg 60%
    12:00 +23°C° 0 mm 5 m/s 760 mmHg 57%
    13:00 +23°C° 0 mm 6 m/s 760 mmHg 54%
    14:00 +23°C° 0 mm 6 m/s 760 mmHg 55%
    15:00 +23°C° 0 mm 6 m/s 760 mmHg 56%
    16:00 +22°C° 0 mm 5 m/s 760 mmHg 57%
    17:00 +21°C° 0 mm 5 m/s 760 mmHg 63%
    18:00 +20°C° 0 mm 4 m/s 760 mmHg 68%
    19:00 +19°C° 0 mm 3 m/s 760 mmHg 73%
    20:00 +18°C° 0 mm 3 m/s 760 mmHg 75%
    21:00 +17°C° 0 mm 3 m/s 761 mmHg 77%
    22:00 +16°C° 0 mm 2 m/s 761 mmHg 79%
    23:00 +15°C° 0 mm 2 m/s 761 mmHg 82%

    23 Julho, Terça-feira

    Tempo Temperatura Precipitação Vento Pressão Humidade
    00:00 +15°C° 0 mm 2 m/s 761 mmHg 85%
    01:00 +15°C° 0 mm 2 m/s 760 mmHg 87%
    02:00 +15°C° 0 mm 2 m/s 760 mmHg 86%
    03:00 +15°C° 0 mm 2 m/s 760 mmHg 85%
    04:00 +16°C° 0 mm 2 m/s 760 mmHg 84%
    05:00 +17°C° 0 mm 2 m/s 760 mmHg 83%
    06:00 +17°C° 0 mm 2 m/s 760 mmHg 82%
    07:00 +18°C° 0 mm 3 m/s 760 mmHg 81%
    08:00 +19°C° 0 mm 3 m/s 760 mmHg 81%
    09:00 +19°C° 0 mm 3 m/s 760 mmHg 82%
    10:00 +19°C° 0 mm 3 m/s 760 mmHg 82%
    11:00 +20°C° 0 mm 3 m/s 760 mmHg 80%
    12:00 +21°C° 0 mm 3 m/s 760 mmHg 79%
    13:00 +22°C° 0 mm 3 m/s 760 mmHg 77%
    14:00 +22°C° 0 mm 3 m/s 760 mmHg 77%
    15:00 +23°C° 0 mm 2 m/s 760 mmHg 77%
    16:00 +23°C° 0 mm 2 m/s 759 mmHg 78%
    17:00 +23°C° 0 mm 2 m/s 759 mmHg 80%
    18:00 +22°C° 0 mm 1 m/s 759 mmHg 83%
    19:00 +22°C° 0 mm 1 m/s 759 mmHg 85%
    20:00 +21°C° 0 mm 1 m/s 759 mmHg 88%
    21:00 +20°C° 0 mm 1 m/s 759 mmHg 91%
    22:00 +16°C° 0 mm 0 m/s 760 mmHg 94%
    23:00 +18°C° 0 mm 1 m/s 760 mmHg 94%

    24 Julho, Quarta-feira

    Tempo Temperatura Precipitação Vento Pressão Humidade
    00:00 +18°C° 0 mm 1 m/s 759 mmHg 95%
    01:00 +18°C° 0 mm 1 m/s 759 mmHg 95%
    02:00 +17°C° 0 mm 2 m/s 759 mmHg 95%
    03:00 +17°C° 0 mm 2 m/s 759 mmHg 95%
    04:00 +17°C° 0 mm 2 m/s 759 mmHg 96%
    05:00 +18°C° 0 mm 2 m/s 759 mmHg 91%
    06:00 +20°C° 0 mm 2 m/s 759 mmHg 87%
    07:00 +23°C° 0 mm 2 m/s 760 mmHg 83%
    08:00 +24°C° 0 mm 2 m/s 760 mmHg 77%
    09:00 +26°C° 0 mm 2 m/s 760 mmHg 71%
    10:00 +27°C° 0 mm 2 m/s 760 mmHg 66%
    11:00 +28°C° 0 mm 2 m/s 760 mmHg 64%
    12:00 +28°C° 0 mm 2 m/s 760 mmHg 62%
    13:00 +29°C° 0 mm 2 m/s 760 mmHg 60%
    14:00 +29°C° 0 mm 3 m/s 760 mmHg 62%
    15:00 +28°C° 0 mm 3 m/s 760 mmHg 64%
    16:00 +28°C° 0 mm 3 m/s 759 mmHg 65%
    17:00 +26°C° 0 mm 3 m/s 759 mmHg 71%
    18:00 +25°C° 0 mm 3 m/s 759 mmHg 77%
    19:00 +23°C° 0 mm 2 m/s 759 mmHg 83%
    20:00 +20°C° 0 mm 2 m/s 760 mmHg 85%
    21:00 +20°C° 0 mm 1 m/s 760 mmHg 86%
    22:00 +18°C° 0 mm 1 m/s 760 mmHg 88%
    23:00 +18°C° 0 mm 1 m/s 760 mmHg 88%

    25 Julho, Quinta-feira

    Tempo Temperatura Precipitação Vento Pressão Humidade
    00:00 +16°C° 0 mm 0 m/s 760 mmHg 88%
    01:00 +15°C° 0 mm 0 m/s 760 mmHg 88%
    02:00 +15°C° 0 mm 0 m/s 760 mmHg 88%
    03:00 +15°C° 0 mm 0 m/s 760 mmHg 89%
    04:00 +15°C° 0 mm 0 m/s 760 mmHg 89%
    05:00 +17°C° 0 mm 0 m/s 761 mmHg 84%
    06:00 +18°C° 0 mm 0 m/s 761 mmHg 78%
    07:00 +20°C° 0 mm 0 m/s 761 mmHg 72%
    08:00 +22°C° 0 mm 0 m/s 761 mmHg 67%
    09:00 +26°C° 0 mm 1 m/s 761 mmHg 61%
    10:00 +27°C° 0 mm 1 m/s 761 mmHg 55%
    11:00 +28°C° 0 mm 2 m/s 761 mmHg 54%
    12:00 +29°C° 0 mm 2 m/s 761 mmHg 52%
    13:00 +29°C° 0 mm 3 m/s 761 mmHg 51%
    14:00 +29°C° 0 mm 3 m/s 761 mmHg 52%
    15:00 +29°C° 0 mm 3 m/s 761 mmHg 54%
    16:00 +28°C° 0 mm 3 m/s 760 mmHg 56%
    17:00 +26°C° 0 mm 3 m/s 760 mmHg 64%
    18:00 +25°C° 0 mm 3 m/s 760 mmHg 72%
    19:00 +23°C° 0 mm 2 m/s 760 mmHg 80%
    20:00 +21°C° 0 mm 2 m/s 760 mmHg 85%
    21:00 +20°C° 0 mm 2 m/s 761 mmHg 89%
    22:00 +18°C° 0 mm 2 m/s 761 mmHg 94%
    23:00 +18°C° 0 mm 2 m/s 761 mmHg 94%
    Mostrar mais